Calhoun, IL

7:01 AM CDT on August 27, 2016 (GMT -0500)
Olney-Noble

Weather History for KOLY - January, 2014

Change the Weather History Date:

Thursday, January 23, 2014

  Actual Average (KEVV) Record (KEVV)
Temperature  
Mean Temperature 6 °F 32 °F  
Max Temperature 10 °F 41 °F 72 °F (1967)
Min Temperature 1 °F 24 °F -14 °F (1963)
Degree Days  
Heating Degree Days 60 33  
Month to date heating degree days 754  
Since 1 July heating degree days 2526  
Cooling Degree Days 0 0  
Month to date cooling degree days 0  
Year to date cooling degree days 0  
Moisture  
Dew Point -3 °F    
Average Humidity 65    
Maximum Humidity 78    
Minimum Humidity 57    
Precipitation  
Precipitation 0.00 in 0.10 in 1.16 in (1996)
Month to date precipitation 2.26  
Year to date precipitation 2.26  
Snow  
Snow 0.00 in 0.20 in 2.60 in (1977)
Month to date snowfall 2.5  
Since 1 July snowfall 6.0  
Snow Depth -    
Sea Level Pressure  
Sea Level Pressure 30.59 in    
Wind  
Wind Speed 15 mph (NW)    
Max Wind Speed 24 mph    
Max Gust Speed 32 mph    
Visibility 10 miles    
Events      
T = Trace of Precipitation, MM = Missing Value Source: NWS Daily Summary

Daily Weather History Graph

Daily Weather History Graph

Search for Another Location

Airport or City:

Trip Planner

Search our weather history database for the weather conditions in past years. The results will help you decide how hot, cold, wet, or windy it might be!

Date:

Astronomy

Jan. 23, 2014 Rise Set
Actual Time 7:05 AM CST 5:04 PM CST
Civil Twilight 6:36 AM CST 5:32 PM CST
Nautical Twilight 6:04 AM CST 6:05 PM CST
Astronomical Twilight 5:32 AM CST 6:36 PM CST
Moon No Moon Rise 10:45 AM CST (1/23)
Length of Visible Light 10h 56m
Length of Day
9h 58m
Waning Gibbous, 55% of the Moon is Illuminated
Jan 23
Waning Gibbous
Jan 23
Last Quarter
Jan 30
New
Feb 6
First Quarter
Feb 14
Full

Hourly Weather History & Observations

Time (CST) Temp. Windchill Dew Point Humidity Pressure Visibility Wind Dir Wind Speed Gust Speed Precip Events Conditions
12:35 AM 10.4 °F -7.7 °F 1.4 °F 67% 30.29 in 10.0 mi NNW 18.4 mph 23.0 mph N/A   Clear
12:55 AM 10.4 °F -6.0 °F 1.4 °F 67% 30.31 in 10.0 mi NNW 15.0 mph 24.2 mph N/A   Scattered Clouds
1:15 AM 8.6 °F -8.3 °F -0.4 °F 67% 30.32 in 10.0 mi NW 15.0 mph 21.9 mph N/A   Scattered Clouds
1:35 AM 8.6 °F -10.5 °F -4.0 °F 57% 30.34 in 10.0 mi NW 19.6 mph 32.2 mph N/A   Scattered Clouds
1:55 AM 6.8 °F -10.7 °F -4.0 °F 61% 30.36 in 10.0 mi NW 15.0 mph 25.3 mph N/A   Clear
2:15 AM 6.8 °F -13.4 °F -4.0 °F 61% 30.37 in 10.0 mi NW 20.7 mph - N/A   Clear
2:35 AM 6.8 °F -10.0 °F -4.0 °F 61% 30.38 in 10.0 mi NW 13.8 mph - N/A   Scattered Clouds
2:55 AM 5.0 °F -15.2 °F -4.0 °F 66% 30.39 in 10.0 mi NW 19.6 mph 26.5 mph N/A   Scattered Clouds
3:15 AM 5.0 °F -17.1 °F -5.8 °F 61% 30.40 in 10.0 mi NNW 24.2 mph - N/A   Scattered Clouds
3:35 AM 3.2 °F -16.5 °F -5.8 °F 66% 30.41 in 10.0 mi NW 17.3 mph 26.5 mph N/A   Clear
3:55 AM 3.2 °F -15.9 °F -5.8 °F 66% 30.43 in 10.0 mi NW 16.1 mph 21.9 mph N/A   Scattered Clouds
4:15 AM 3.2 °F -14.6 °F -5.8 °F 66% 30.44 in 10.0 mi NW 13.8 mph 24.2 mph N/A   Clear
4:35 AM 3.2 °F -15.3 °F -5.8 °F 66% 30.45 in 10.0 mi NW 15.0 mph 25.3 mph N/A   Clear
4:55 AM 3.2 °F -14.6 °F -5.8 °F 66% 30.46 in 10.0 mi NW 13.8 mph 23.0 mph N/A   Clear
5:15 AM 3.2 °F -16.5 °F -7.6 °F 61% 30.47 in 10.0 mi NW 17.3 mph 21.9 mph N/A   Clear
5:35 AM 3.2 °F -15.3 °F -7.6 °F 61% 30.49 in 10.0 mi NW 15.0 mph 23.0 mph N/A   Clear
5:55 AM 1.4 °F -16.9 °F -7.6 °F 66% 30.50 in 10.0 mi NW 13.8 mph 19.6 mph N/A   Clear
6:15 AM 1.4 °F -14.5 °F -7.6 °F 66% 30.52 in 10.0 mi NW 10.4 mph 18.4 mph N/A   Clear
6:35 AM 1.4 °F -13.5 °F -7.6 °F 66% 30.53 in 10.0 mi NW 9.2 mph 19.6 mph N/A   Clear
6:55 AM 1.4 °F -16.1 °F -7.6 °F 66% 30.54 in 10.0 mi NW 12.7 mph - N/A   Clear
7:15 AM 1.4 °F -17.6 °F -5.8 °F 72% 30.55 in 10.0 mi NW 15.0 mph 23.0 mph N/A   Clear
7:35 AM 1.4 °F -17.6 °F -5.8 °F 72% 30.56 in 10.0 mi NW 15.0 mph 23.0 mph N/A   Clear
7:55 AM 3.2 °F -15.3 °F -5.8 °F 66% 30.57 in 10.0 mi WNW 15.0 mph 21.9 mph N/A   Clear
8:15 AM 3.2 °F -17.6 °F -5.8 °F 66% 30.58 in 10.0 mi WNW 19.6 mph 24.2 mph N/A   Clear
8:35 AM 3.2 °F -17.1 °F -5.8 °F 66% 30.59 in 10.0 mi WNW 18.4 mph - N/A   Clear
8:55 AM 3.2 °F -16.5 °F -5.8 °F 66% 30.60 in 10.0 mi WNW 17.3 mph - N/A   Clear
9:15 AM 5.0 °F -14.2 °F -4.0 °F 66% 30.61 in 10.0 mi WNW 17.3 mph - N/A   Clear
9:35 AM 5.0 °F -13.6 °F -4.0 °F 66% 30.62 in 10.0 mi WNW 16.1 mph - N/A   Clear
9:55 AM 5.0 °F -13.0 °F -4.0 °F 66% 30.63 in 10.0 mi WNW 15.0 mph 19.6 mph N/A   Clear
10:15 AM 5.0 °F -13.0 °F -4.0 °F 66% 30.64 in 10.0 mi WNW 15.0 mph 20.7 mph N/A   Clear
10:35 AM 6.8 °F -10.0 °F -4.0 °F 61% 30.65 in 10.0 mi WNW 13.8 mph 20.7 mph N/A   Scattered Clouds
10:55 AM 6.8 °F -9.3 °F -4.0 °F 61% 30.66 in 10.0 mi WNW 12.7 mph 16.1 mph N/A   Scattered Clouds
11:15 AM 6.8 °F -11.3 °F -4.0 °F 61% 30.65 in 10.0 mi WNW 16.1 mph 19.6 mph N/A   Scattered Clouds
11:35 AM 8.6 °F -7.7 °F -4.0 °F 57% 30.65 in 10.0 mi WNW 13.8 mph - N/A   Scattered Clouds
11:55 AM 8.6 °F -7.7 °F -2.2 °F 62% 30.64 in 10.0 mi WNW 13.8 mph 18.4 mph N/A   Scattered Clouds
12:15 PM 8.6 °F -7.0 °F -2.2 °F 62% 30.64 in 10.0 mi WNW 12.7 mph 19.6 mph N/A   Clear
12:35 PM 8.6 °F -6.3 °F -2.2 °F 62% 30.64 in 10.0 mi WNW 11.5 mph 20.7 mph N/A   Clear
12:55 PM 10.4 °F -4.1 °F -0.4 °F 62% 30.64 in 10.0 mi West 11.5 mph 19.6 mph N/A   Clear
1:15 PM 10.4 °F -6.0 °F -0.4 °F 62% 30.63 in 10.0 mi WNW 15.0 mph 20.7 mph N/A   Clear
1:35 PM 10.4 °F -7.2 °F -0.4 °F 62% 30.63 in 10.0 mi NW 17.3 mph 20.7 mph N/A   Clear
1:55 PM 10.4 °F -5.4 °F -0.4 °F 62% 30.64 in 10.0 mi NW 13.8 mph - N/A   Clear
2:15 PM 10.4 °F -6.0 °F -0.4 °F 62% 30.64 in 10.0 mi NW 15.0 mph 24.2 mph N/A   Clear
2:35 PM 10.4 °F -6.0 °F -0.4 °F 62% 30.64 in 10.0 mi WNW 15.0 mph 19.6 mph N/A   Scattered Clouds
2:55 PM 10.4 °F -6.6 °F -0.4 °F 62% 30.65 in 10.0 mi WNW 16.1 mph 21.9 mph N/A   Clear
3:15 PM 10.4 °F -6.6 °F -0.4 °F 62% 30.66 in 10.0 mi WNW 16.1 mph 21.9 mph N/A   Clear
3:35 PM 10.4 °F -7.7 °F -0.4 °F 62% 30.66 in 10.0 mi WNW 18.4 mph 23.0 mph N/A   Clear
3:55 PM 10.4 °F -6.0 °F -0.4 °F 62% 30.67 in 10.0 mi WNW 15.0 mph 20.7 mph N/A   Clear
4:15 PM 10.4 °F -6.6 °F -0.4 °F 62% 30.67 in 10.0 mi WNW 16.1 mph 21.9 mph N/A   Clear
4:35 PM 10.4 °F -6.0 °F -0.4 °F 62% 30.67 in 10.0 mi WNW 15.0 mph - N/A   Clear
4:55 PM 10.4 °F -6.6 °F -0.4 °F 62% 30.67 in 10.0 mi WNW 16.1 mph 20.7 mph N/A   Clear
5:15 PM 10.4 °F -5.4 °F -0.4 °F 62% 30.68 in 10.0 mi WNW 13.8 mph - N/A   Clear
5:35 PM 10.4 °F -4.1 °F -0.4 °F 62% 30.69 in 10.0 mi WNW 11.5 mph - N/A   Clear
5:55 PM 8.6 °F -3.7 °F -0.4 °F 67% 30.69 in 10.0 mi WNW 8.1 mph - N/A   Clear
6:15 PM 8.6 °F -6.3 °F -0.4 °F 67% 30.69 in 10.0 mi WNW 11.5 mph - N/A   Clear
6:35 PM 8.6 °F -6.3 °F -0.4 °F 67% 30.69 in 10.0 mi WNW 11.5 mph - N/A   Clear
6:55 PM 8.6 °F -5.5 °F -0.4 °F 67% 30.70 in 10.0 mi WNW 10.4 mph - N/A   Clear
7:15 PM 8.6 °F -5.5 °F -0.4 °F 67% 30.71 in 10.0 mi WNW 10.4 mph - N/A   Clear
7:35 PM 8.6 °F -6.3 °F -0.4 °F 67% 30.70 in 10.0 mi WNW 11.5 mph - N/A   Clear
7:55 PM 8.6 °F -6.3 °F -0.4 °F 67% 30.71 in 10.0 mi WNW 11.5 mph - N/A   Clear
8:35 PM 8.6 °F -3.7 °F -0.4 °F 67% 30.70 in 10.0 mi WNW 8.1 mph - N/A   Clear
8:55 PM 6.8 °F -3.5 °F -0.4 °F 72% 30.71 in 10.0 mi WNW 5.8 mph - N/A   Clear
9:15 PM 6.8 °F -4.8 °F -0.4 °F 72% 30.71 in 10.0 mi WNW 6.9 mph - N/A   Clear
9:55 PM 5.0 °F - -2.2 °F 72% 30.71 in 10.0 mi Calm Calm - N/A   Clear
10:15 PM 5.0 °F -5.6 °F -0.4 °F 78% 30.72 in 10.0 mi WNW 5.8 mph - N/A   Clear
10:35 PM 3.2 °F -4.2 °F -2.2 °F 78% 30.72 in 10.0 mi NW 3.5 mph - N/A   Clear
10:55 PM 5.0 °F -6.9 °F -2.2 °F 72% 30.72 in 10.0 mi WNW 6.9 mph - N/A   Clear
11:15 PM 5.0 °F - -4.0 °F 66% 30.72 in 10.0 mi Calm Calm - N/A   Clear
11:35 PM 5.0 °F - -4.0 °F 66% 30.71 in 10.0 mi Calm Calm - N/A   Clear
11:55 PM 3.2 °F - -4.0 °F 72% 30.71 in 10.0 mi Calm Calm - N/A   Clear